www.pogodaiklimat.ru
ПОГОДА в Хогевене

Архив погоды в Хогевене (Нидерланды)

Время
(UTC), дата
22 21.11
23 21.11
00 22.11
01 22.11
02 22.11
03 22.11
04 22.11
05 22.11
06 22.11
07 22.11
08 22.11
09 22.11
10 22.11
11 22.11
12 22.11
13 22.11
14 22.11
15 22.11
16 22.11
17 22.11
18 22.11
19 22.11
20 22.11
21 22.11
22 22.11
23 22.11
00 23.11
01 23.11
02 23.11
03 23.11
04 23.11
05 23.11
06 23.11
07 23.11
08 23.11
09 23.11
10 23.11
11 23.11
12 23.11
13 23.11
14 23.11
15 23.11
16 23.11
17 23.11
18 23.11
19 23.11
20 23.11
21 23.11
22 23.11
23 23.11
00 24.11
01 24.11
02 24.11
03 24.11
04 24.11
05 24.11
06 24.11
07 24.11
08 24.11
09 24.11
10 24.11
11 24.11
12 24.11
13 24.11
14 24.11
15 24.11
16 24.11
17 24.11
18 24.11
19 24.11
20 24.11
21 24.11
22 24.11
23 24.11
00 25.11
01 25.11
02 25.11
03 25.11
04 25.11
05 25.11
06 25.11
07 25.11
08 25.11
09 25.11
10 25.11
11 25.11
12 25.11
13 25.11
14 25.11
15 25.11
16 25.11
17 25.11
18 25.11
19 25.11
20 25.11
21 25.11
22 25.11
23 25.11
00 26.11
01 26.11
02 26.11
03 26.11
04 26.11
05 26.11
06 26.11
07 26.11
08 26.11
09 26.11
10 26.11
11 26.11
12 26.11
13 26.11
14 26.11
15 26.11
16 26.11
17 26.11
18 26.11
19 26.11
20 26.11
21 26.11
22 26.11
23 26.11
00 27.11
01 27.11
02 27.11
03 27.11
04 27.11
05 27.11
06 27.11
07 27.11
08 27.11
09 27.11
10 27.11
11 27.11
12 27.11
13 27.11
14 27.11
15 27.11
16 27.11
17 27.11
18 27.11
19 27.11
20 27.11
21 27.11
22 27.11
23 27.11
00 28.11
01 28.11
02 28.11
03 28.11
04 28.11
05 28.11
06 28.11
07 28.11
08 28.11
09 28.11
10 28.11
11 28.11
12 28.11
13 28.11
15 28.11
16 28.11
17 28.11
18 28.11
19 28.11
20 28.11
21 28.11
Ветер
(напр.,м/с)
Видим. Явления Облачность Т
(С)
Тd
(С)
f
(%)
Тe
(С)
Тes
(С)
Комфортность P
(гПа)
Po
(гПа)
Тmin
(С)
Tmax
(С)
R
(мм)
R24
(мм)
S
(см)
В 5-7
{7}
6000 м в посл. час дождь 3/1 100 м +3.0 +2.5 97 -3 -3 993.8 991.6 0.2
ЮВ 4-6
{7}
10 км слаб. ливневой дождь 9/9 1000 м +3.0 +2.3 95 -2 -2 993.6 991.5 0.5
В 5-7
{8}
11 км в посл. час дождь 10 баллов +3.0 +2.3 95 -2 -2 992.5 990.6 0.3
В 5-7
{7}
11 км слаб. ливневой дождь 10/10 1000 м +3.2 +2.5 95 -2 -2 992.0 990.0
ЮВ 5-7
{7}
8000 м морось с дождем 10/10 600 м +3.6 +2.8 94 -2 -2 991.7 989.7 0.4
ЮВ 5-7
{7}
13 км в посл. час дождь 10 баллов +4.1 +3.3 95 -1 -1 991.6 989.5 0.2
ЮВ 4-5
{6}
11 км 10/10 300 м +4.2 +3.6 96 -0 -0 991.8 989.8
ЮВ 4-5
{5}
14 км 10/6 300 м +5.2 +4.5 95 +1 +1 992.1 990.0
Ю 3-5
{7}
18 км 10 баллов +5.3 +4.6 95 +2 +2 992.3 990.2 +2.7 2 1.6
Ю 3-4
{5}
15 км 8/6 +4.5 +3.9 96 +1 +1 992.6 990.5
Ю 5-6
{7}
24 км 3/1 200 м +4.7 +3.8 94 -0 -0 993.1 991.0
Ю 5-8
{8}
30 км 1 балл +5.6 +3.9 89 +1 +1 993.6 991.4
Ю 7-10
{10}
40 км 10/10 600 м +6.2 +4.0 86 +1 +1 994.1 992.0
Ю 6-9
{10}
50 км 5/5 300 м +6.8 +3.9 82 +2 +3 993.9 991.8
Ю 5-7
{10}
45 км 10 баллов +7.2 +3.8 79 +3 +3 993.7 991.6
Ю 5-7
{8}
50 км 10/10 600 м +7.2 +3.4 77 +3 +3 993.7 991.6
ЮВ 3-5
{7}
50 км 10/10 600 м +7.1 +3.5 78 +4 +4 993.7 991.6
ЮВ 4-6
{8}
35 км 10 баллов +7.0 +3.5 78 +4 +4 993.5 991.4
ЮВ 5-7
{7}
50 км 10/9 1000 м +7.1 +3.5 78 +3 +3 993.6 991.5
ЮВ 4-6
{7}
65 км 10/10 600 м +7.1 +3.7 79 +4 +4 993.8 991.7
ЮВ 4-6
{8}
>70 км 10 баллов +7.2 +3.7 78 +4 +4 993.9 991.8 +7.4
ЮВ 5-7
{8}
>70 км 10/10 600 м +7.4 +4.2 80 +4 +4 994.2 992.0
ЮВ 4-6
{8}
19 км слаб. морось 10/10 300 м +6.7 +5.6 93 +3 +3 994.3 992.4
Ю 4-6
{8}
28 км в посл. час морось 10 баллов +7.2 +6.1 93 +4 +4 994.5 992.4
Ю 5-7
{7}
15 км в посл. час морось 10/8 200 м +7.3 +6.4 94 +3 +3 994.7 992.5
Ю 4-6
{7}
21 км 10/10 300 м +7.6 +6.7 94 +4 +4 994.8 992.7
Ю 4-6
{8}
14 км 10 баллов +7.7 +6.9 95 +4 +4 995.0 992.9 0.1
Ю 5-6
{8}
19 км в посл. час морось 10/10 200 м +7.8 +7.0 95 +4 +4 995.0 992.9 0.1
Ю 4-6
{6}
7000 м дождь 10/10 200 м +7.8 +7.2 96 +4 +4 995.3 993.2 0.3
Ю 4-6
{8}
17 км в посл. час дождь 10 баллов +8.0 +7.4 96 +5 +5 995.6 993.5 0.2
Ю 3-5
{6}
10 км морось 10/9 200 м +8.0 +7.5 97 +5 +5 995.9 993.8
Ю 4-6
{6}
14 км в посл. час дождь 10/6 300 м +8.0 +7.3 95 +5 +5 996.1 994.0 0.1
Ю 3-5
{8}
23 км 9 баллов +7.5 +6.6 94 +4 +4 996.2 994.1 +6.7 0.8 0.8
Ю 4-6
{6}
22 км 9/9 1500 м +7.2 +6.4 95 +4 +4 996.6 994.5
Ю 4-5
{6}
27 км 10/10 600 м +7.7 +6.8 94 +4 +4 997.1 995.2
Ю 4-7
{7}
30 км 10 баллов +8.6 +6.7 88 +5 +5 997.2 995.2
Ю 6-10
{10}
13 км 10/10 300 м +8.3 +6.7 90 +4 +4 997.4 995.3
Ю 5-9
{9}
35 км в посл. час морось 9/6 1000 м +9.2 +6.7 84 +6 +6 997.1 995.0
Ю 7-10
{11}
55 км ясно +10.2 +6.0 75 +7 +7 996.4 994.3 0.0
Ю 8-12
{12}
45 км 3/3 600 м +10.0 +4.9 71 +6 +6 996.6 994.6
Ю 7-12
{12}
50 км 1/1 +9.7 +4.4 70 +6 +6 996.2 994.3
Ю 4-6
{12}
65 км 9 баллов +8.6 +3.9 72 +6 +6 996.4 994.2
Ю 7-10
{10}
28 км слаб. морось 10/10 1000 м +8.4 +4.6 77 +4 +4 997.1 994.9 0.1
Ю 7-11
{11}
35 км слаб. ливневой дождь 10/9 1000 м +7.9 +5.3 84 +3 +3 997.1 995.0
Ю 5-7
{12}
45 км слаб. дождь 10 баллов +7.6 +5.7 88 +4 +4 997.8 995.7 +10.2 0.3
Ю 6-8
{9}
45 км в посл. час дождь 10/10 300 м +7.8 +6.3 90 +4 +4 998.3 996.2 0.1
Ю 5-8
{9}
30 км 10/8 300 м +8.1 +6.8 91 +4 +4 999.1 997.0
Ю 5-7
{9}
28 км 10 баллов +8.2 +6.8 91 +4 +4 999.6 997.5
Ю 6-8
{8}
24 км 1/1 200 м +7.7 +6.4 91 +3 +3 1000.1 998.0
Ю 5-6
{8}
21 км 1/1 1000 м +7.1 +6.1 93 +3 +3 1000.9 998.8
Ю 5-7
{9}
20 км ясно +6.7 +5.8 94 +2 +2 1001.4 999.3 0.1
Ю 5-7
{7}
21 км ясно +6.9 +6.0 94 +3 +3 1001.5 999.3
Ю 4-6
{7}
22 км 6/6 +7.0 +5.9 93 +3 +3 1002.2 1000.1
Ю 5-7
{7}
24 км 6 баллов +7.8 +6.3 90 +4 +4 1002.6 1000.5
ЮЗ 5-7
{8}
30 км 5/5 1500 м +7.5 +5.8 89 +4 +4 1003.1 1000.9
Ю 4-5
{6}
30 км 10/10 +7.3 +5.9 91 +4 +4 1003.8 1001.6
Ю 3-4
{8}
30 км 6 баллов +6.0 +4.9 93 +3 +3 1004.6 1002.5 +5.9 0.1 0.5
Ю 3-4
{5}
26 км 10/10 1000 м +7.2 +5.9 91 +4 +4 1005.6 1003.5
Ю 3-5
{6}
26 км 9/9 1500 м +7.4 +6.0 91 +4 +4 1006.5 1004.3
ЮЗ 4-6
{6}
45 км ясно +7.7 +5.8 88 +4 +5 1007.3 1005.2
ЮЗ 5-7
{7}
65 км 3/3 1500 м +8.0 +6.0 87 +4 +5 1008.0 1005.8
ЮЗ 5-6
{8}
40 км 4/4 1500 м +9.7 +7.1 84 +6 +7 1008.8 1006.6
ЮЗ 5-7
{8}
35 км 1 балл +10.3 +7.5 83 +7 +8 1009.2 1007.1
Ю 4-5
{7}
40 км 4/4 +10.3 +7.4 82 +8 +8 1009.4 1007.3
ЮЗ 4-6
{8}
30 км 1/1 600 м +10.2 +7.3 82 +8 +8 1009.6 1007.5
Ю 3-5
{8}
35 км 3 балла +8.9 +6.8 87 +6 +6 1009.8 1007.8
Ю 3-4
{6}
30 км ясно +7.5 +5.9 90 +5 +5 1010.3 1008.2
Ю 4-5
{5}
24 км ясно +7.4 +5.9 90 +4 +4 1010.4 1008.3
Ю 4-5
{8}
25 км 5 баллов +7.1 +5.6 90 +3 +3 1010.5 1008.4 +10.8
Ю 4-6
{6}
24 км 6/6 +6.9 +5.4 90 +3 +3 1010.6 1008.5
Ю 4-6
{7}
28 км 9/9 +6.4 +5.1 91 +3 +3 1010.5 1008.6
Ю 5-7
{7}
30 км 10 баллов +6.6 +5.0 90 +2 +2 1010.6 1008.4
Ю 5-8
{8}
35 км 6/6 +6.8 +4.7 86 +3 +3 1010.3 1008.2
Ю 5-7
{8}
30 км слаб. ливневой дождь 10/10 +7.1 +4.9 86 +3 +3 1010.0 1007.9
Ю 5-7
{8}
30 км в посл. час дождь 9 баллов +7.2 +5.3 88 +3 +3 1009.7 1007.6 0.1
Ю 4-6
{8}
30 км слаб. ливневой дождь 10/10 1500 м +7.5 +5.5 87 +4 +4 1009.3 1007.2
Ю 5-8
{8}
18 км слаб. ливневой дождь 10/8 1000 м +7.6 +6.1 90 +4 +4 1009.3 1007.4 0.5
Ю 5-7
{8}
16 км дождь 9 баллов +7.7 +6.7 93 +4 +4 1009.3 1007.1 0.8
Ю 5-7
{8}
23 км слаб. морось 10/10 600 м +8.0 +7.0 93 +4 +4 1009.3 1007.2 0.3
Ю 3-6
{7}
19 км слаб. дождь 9/6 300 м +8.0 +7.2 95 +5 +5 1009.6 1007.5 0.2
Ю 4-6
{8}
20 км в посл. час дождь 10 баллов +8.2 +7.4 95 +5 +5 1010.2 1008.1 +6.4 2 2.0
Ю 5-7
{7}
30 км в посл. час дождь 10/9 1000 м +8.1 +7.3 95 +4 +4 1010.8 1008.6 0.4
Ю 4-6
{6}
29 км 6/6 +7.7 +6.9 95 +4 +4 1011.6 1009.7
Ю 5-7
{7}
30 км 1 балл +8.5 +7.5 93 +5 +5 1012.2 1010.1
ЮЗ 5-7
{8}
35 км ясно +9.2 +7.6 90 +6 +6 1013.0 1010.8
ЮЗ 5-7
{8}
45 км 4/4 600 м +10.3 +7.6 83 +7 +8 1013.6 1011.4
ЮЗ 4-7
{8}
45 км 6 баллов +11.0 +7.5 79 +9 +9 1014.2 1012.1 0.4
ЮЗ 4-7
{9}
35 км 5/4 1000 м +10.4 +7.8 84 +8 +8 1014.9 1012.8
ЮЗ 4-7
{7}
35 км 9/9 600 м +10.8 +8.1 83 +8 +8 1015.5 1013.6
ЮЗ 3-3
{9}
30 км ясно +9.2 +7.3 88 +7 +7 1016.4 1014.2
ЮЗ 2-3
{4}
30 км в посл. час дождь 5/4 600 м +9.1 +7.6 90 +7 +7 1017.5 1015.3 0.1
ЮЗ 3-4
{4}
24 км 1/1 1500 м +7.7 +6.9 95 +5 +5 1018.7 1016.4
ЮЗ 3-4
{9}
21 км ясно +7.0 +6.4 96 +4 +4 1019.8 1017.4 +11.2 0.5
ЮЗ 2-3
{4}
16 км 1/1 600 м +6.0 +5.5 97 +3 +3 1020.7 1018.4
ЮЗ 2-3
{3}
5000 м дымка ясно +6.1 +5.9 99 +3 +3 1021.5 1019.2
ЮЗ 2-3
{4}
3500 м дымка 3 балла +5.7 +5.6 99 +3 +3 1022.2 1019.9
ЮЗ 3-4
{4}
5000 м дымка ясно +4.9 +4.8 99 +1 +1 1023.0 1020.7
ЮЗ 2-3
{3}
600 м туман ясно +4.0 +3.8 99 +1 +1 1023.7 1021.4
ЮЗ 3-4
{4}
2500 м в посл. час туман ясно +4.1 +4.0 99 0 0 1024.2 1021.9 0.0
ЮЗ 3-4
{4}
600 м туман ясно +3.5 +3.4 99 -1 -1 1024.7 1022.4
ЮЗ 2-3
{4}
1800 м в посл. час туман ясно +3.4 +3.3 99 0 0 1025.1 1022.8
Ю 1-2
{4}
600 м туман ясно +3.3 +3.3 100 +2 +2 1025.2 1022.9
ЮЗ 3-4
{4}
2500 м в посл. час туман ясно +3.0 +2.9 99 -1 -1 1025.9 1023.6
ЮЗ 3-4
{5}
4200 м дымка ясно +3.5 +3.3 99 -1 -1 1026.2 1023.9
Ю 3-3
{5}
3400 м дымка 1 балл +3.4 +3.3 99 -1 -1 1026.6 1024.4 +2.8 0.0 0.6
Ю 2-3
{4}
2000 м дымка ясно +2.7 +2.5 99 -1 -1 1027.1 1024.8
Ю 4-5
{5}
7000 м в посл. час туман 8/8 +4.1 +3.9 99 -1 -1 1027.5 1025.3
Ю 3-4
{5}
4700 м дымка 9 баллов +4.6 +4.5 99 +1 +1 1027.7 1025.5
Ю 4-6
{6}
2700 м дымка 10/10 50 м +5.6 +5.4 99 +1 +1 1028.2 1025.9
Ю 4-5
{6}
3300 м дымка 10/10 100 м +6.5 +6.4 99 +3 +3 1028.1 1025.9
Ю 3-5
{6}
6000 м дымка 10 баллов +7.7 +7.2 97 +5 +5 1027.9 1025.6 0.0
Ю 3-4
{5}
10 км 10/10 +8.2 +7.5 95 +5 +5 1027.7 1025.5
Ю 3-4
{5}
8000 м дымка 9/9 +7.9 +7.4 97 +5 +5 1027.2 1025.0
Ю 3-5
{5}
10 км 10 баллов +7.9 +7.3 96 +5 +5 1027.3 1025.0
Ю 3-5
{5}
10 км 10/10 +7.7 +7.1 96 +5 +5 1027.1 1024.9
Ю 3-5
{5}
10 км 5/5 +7.1 +6.5 96 +4 +4 1027.4 1025.1
Ю 3-4
{5}
11 км 10 баллов +6.7 +6.1 96 +3 +3 1027.2 1025.0 +8.3 0.0
Ю 3-5
{5}
11 км 9/9 +6.5 +5.9 96 +3 +3 1026.9 1024.7
Ю 4-6
{6}
18 км 10/10 +7.1 +6.3 95 +3 +3 1026.4 1024.2
Ю 4-6
{7}
24 км 10 баллов +7.3 +6.3 93 +4 +4 1027.3 1025.1
Ю 4-6
{7}
24 км 10/10 +7.0 +5.9 93 +3 +3 1026.0 1023.9
Ю 4-6
{7}
23 км 10/10 +6.5 +5.2 91 +3 +3 1025.5 1023.4
Ю 5-6
{7}
25 км 10 баллов +5.9 +4.6 91 +1 +1 1025.1 1023.0
Ю 5-6
{8}
25 км 10/10 +5.5 +4.1 91 +1 +1 1024.8 1022.7
Ю 5-7
{7}
26 км 10/10 +5.2 +3.6 89 +1 +1 1024.5 1022.3
Ю 4-7
{8}
27 км 10 баллов +5.0 +3.5 90 +1 +1 1023.5 1021.3
Ю 5-6
{8}
30 км 10/10 +5.2 +3.4 88 +1 +1 1022.9 1020.8
Ю 5-7
{7}
30 км 10/10 +5.2 +3.4 88 +1 +1 1022.7 1020.5
Ю 4-7
{8}
30 км 10 баллов +5.1 +3.1 87 +1 +1 1022.2 1020.0 +5.0 0.0
Ю 5-7
{7}
40 км 10/10 2000 м +5.2 +2.9 85 +1 +1 1021.7 1019.6
Ю 4-6
{8}
35 км 9/9 +5.3 +2.9 84 +1 +1 1021.1 1018.9
Ю 4-6
{8}
45 км слаб. ливневой дождь 10 баллов +5.7 +3.2 84 +2 +2 1021.1 1018.9
Ю 4-7
{7}
35 км слаб. дождь 10/10 1500 м +5.7 +3.9 88 +2 +2 1020.8 1018.7 0.3
Ю 4-6
{6}
27 км морось с дождем 10/10 1500 м +5.9 +4.2 89 +2 +2 1020.2 1018.1 0.3
ЮВ 4-6
{8}
26 км морось 10 баллов +6.2 +4.6 89 +2 +2 1019.3 1017.2 0.2
Ю 4-6
{7}
35 км морось с дождем 10/10 1000 м +6.4 +4.5 88 +3 +3 1018.4 1016.3 0.2
ЮВ 4-6
{7}
40 км в посл. час дождь 10/10 600 м +6.6 +4.5 86 +3 +3 1017.5 1015.4 0.1
ЮВ 5-7
{7}
25 км слаб. морось 10 баллов +6.5 +4.4 86 +2 +2 1016.5 1014.4
ЮВ 4-6
{7}
23 км морось 10/10 1000 м +6.5 +4.6 88 +3 +3 1016.1 1013.9
ЮВ 5-7
{7}
28 км слаб. морось 10/10 1000 м +6.5 +4.6 88 +2 +2 1015.3 1013.1 0.2
ЮВ 4-6
{7}
25 км в посл. час морось 10 баллов +6.7 +4.9 88 +3 +3 1014.5 1012.3 +6.7 1
Ю 4-7
{7}
16 км морось 10/10 600 м +6.7 +4.8 88 +3 +3 1014.0 1011.9 0.2
ЮВ 4-7
{7}
21 км морось с дождем 10/10 600 м +6.4 +5.1 91 +3 +3 1013.4 1011.3 0.5
ЮВ 4-6
{7}
15 км морось с дождем 10 баллов +6.2 +5.2 93 +2 +2 1012.8 1010.6 0.8
ЮВ 4-6
{6}
26 км слаб. дождь 10/10 600 м +6.1 +5.1 93 +2 +2 1011.9 1009.8 0.9
ЮВ 4-6
{7}
16 км дождь 10/10 600 м +6.0 +5.1 94 +2 +2 1011.3 1009.2 1
ЮВ 5-7
{7}
30 км в посл. час дождь 10 баллов +6.2 +4.8 91 +2 +2 1010.4 1008.3 0.3
ЮВ 4-6
{7}
40 км 10/10 600 м +6.5 +4.9 90 +3 +3 1009.5 1007.5
ЮВ 4-7
{7}
35 км 10/9 600 м +6.8 +5.2 90 +3 +3 1008.8 1006.7
Ю 5-8
{8}
10 км 10 баллов +7.0 +5.9 93 +3 +3 1008.7 1006.6
Ю 5-8
{8}
9000 м дымка 10/9 200 м +7.2 +6.4 95 +3 +3 1008.3 1006.2
Ю 5-8
{9}
9000 м в посл. час морось 10/10 200 м +7.4 +6.8 96 +3 +3 1008.3 1006.3 0.1
Ю 6-8
{9}
5000 м дымка 10 баллов +7.5 +6.8 95 +3 +3 1008.5 1006.4 +5.9 4 5.6
Ю 5-7
{8}
18 км в посл. час морось 10/10 200 м +7.6 +6.8 95 +4 +4 1008.9 1006.8 0.1
Ю 4-7
{8}
4400 м морось с дождем 10/10 200 м +7.5 +7.0 97 +4 +4 1009.2 1007.1 0.4
Ю 4-5
{8}
6000 м дождь 10 баллов +7.5 +7.1 97 +4 +4 1009.5 1007.4 0.9
Ю 4-6
{6}
16 км слаб. дождь 10/10 100 м +7.7 +7.3 97 +4 +4 1009.9 1007.8 0.9
Ю 3-5
{6}
15 км слаб. дождь 10/10 100 м +8.0 +7.6 97 +5 +5 1009.8 1007.8 0.4
Ю 3-4
{8}
20 км слаб. дождь 10 баллов +8.2 +7.8 97 +5 +5 1009.8 1007.7 0.1
Ю 3-4
{4}
17 км слаб. дождь 10/10 100 м +8.2 +7.8 97 +5 +5 1010.0 1007.9 0.4
Ю 2-3
{4}
8000 м слаб. морось с дождем 10 баллов +8.2 +7.9 98 +6 +6 1010.8 1008.6 0.3
Ю 2-3
{3}
4700 м в посл. час дождь 10/10 50 м +8.2 +7.9 98 +6 +6 1011.1 1009.0 0.1
Ю 2-2
{3}
300 м туман ?/? +8.2 +8.1 99 +6 +6 1011.5 1009.4
ЮЗ 1-2
{4}
300 м туман ?/? +8.2 +8.1 99 +7 +7 1011.9 1009.8 +8.3 4
ЮЗ 1-2
{2}
600 м туман 10/10 50 м +8.3 +8.2 99 +7 +7 1012.3 1010.1
ЮЗ 2-2
{3}
400 м туман ?/? +8.4 +8.3 99 +6 +6 1012.6 1010.4
З 2-3
{3}
500 м туман 10 баллов +8.5 +8.5 100 +6 +6 1013.0 1010.9
Местоположение метеостанции Хогевен (Нидерланды): широта 52.75 долгота 6.52 высота над уровнем моря 16 м.
В архиве по умолчанию представлена погода в Хогевене за последнюю неделю. Архивные данные за месяц целиком и за предыдущие месяцы, начиная с января 2011 года, Вы можете получить, выбрав интересующий диапазон дат из раскрывающегося списка и нажав кнопку "Найти!".
*Определитесь, кто Вы:
Внимание! Время в таблицах - всемирное. Для получения местного времени необходимо прибавить поправку, которая равна 1 ч.
Смотрите также архив погоды в соседних городах и на ближайших метеорологических станциях:
Партнеры нашего сайта:      
Пояснения к столбцам:
  • Ветер - указаны скорость ветра в м/с - средняя за 10 мин, порывы в срок и между сроками (в фигурных скобках) и направление, откуда дует ветер: С - северный,
  • СВ - северо-восточный, В - восточный, ЮВ - юго-восточный, Ю - южный, ЮЗ - юго-западный, З - западный, СЗ - северо-западный.
  • Видимость - горизонтальная дальность видимости в метрах или километрах. При видимости от 1 до 10 км при отсутствии осадков обычно наблюдается дымка, при ухудшении видимости до 1 км и менее - туман. В сухую погоду видимость может ухудшаться дымом, пылью или мглою.
  • Явления - указаны атмосферные явления, наблюдавшиеся в срок или в последний час перед сроком; фигурными скобками обозначены явления, наблюдавшиеся между сроками (за 1-3 часа до срока); квадратными скобками обозначены град или гололедные отложения с указанием их диаметра в мм.
  • Облачность - указаны через наклонную черту общая и нижняя облачность в баллах и высота нижней границы облаков в метрах; квадратными скобками обозначены формы облаков: Ci - перистые, Cs - перисто-слоистые, Cc - перисто-кучевые, Ac - высококучевые, As - высокослоистые, Sc - слоисто-кучевые, Ns - слоисто-дождевые, Cu - кучевые, Cb - кучево-дождевые. Подробнее классификацию облаков см. в Атласе облаков (PDF).
  • T - Температура воздуха - температура, измеренная на высоте 2 м над землей.
  • Td - Температура точки росы - температура, при понижении до которой содержащийся в воздухе водяной пар достигнет насыщения.
  • f - Относительная влажность воздуха - влажноcть воздуха, измеренная на высоте 2 м над землей.
  • Te - Эффективная температура - температура, которую ощущает одетый по сезону человек в тени. Характеристика душности погоды. При расчете учитывается влияние влажности воздуха и скорости ветра на теплоощущения человека.
  • Tes - Эффективная температура на солнце - температура, которую ощущает человек, с поправкой на солнечный нагрев. Характеристика знойности погоды. Зависит от высоты солнца над горизонтом, облачности и скорости ветра. Ночью, в пасмурную погоду, а также при ветре 12 м/с и более поправка равна нулю.
  • P - Атмосферное давление - приведенное к уровню моря атмосферное давление.
  • Po - Атмосферное давление - измеренное на уровне метеостанции атмосферное давление.
  • Tmin - Минимальная температура - минимум температуры воздуха на высоте 2 м над землей.
  • Tmax - Максимальная температура - максимум температуры воздуха на высоте 2 м над землей.
  • R - Количество осадков - Количество выпавших осадков за период времени, мм. При наведении курсора мыши на число - период времени, за который выпало указанное количество осадков.
  • R24 - Количество осадков - Количество выпавших осадков за 24 часа, мм.
  • S - Снежный покров - Высота снежного покрова, см. При наведении курсора мыши на число - состояние снежного покрова и степень покрытия местности в баллах.